This is the latest recevied weather packets stored in our database for station/object KE8WAY. If no packets are shown the sender has not sent any weather packets the latest 10 day(s).
| Time | Temp. | Humidity | Pressure | Rain* | Wind** | Luminosity | Snow |
|---|---|---|---|---|---|---|---|
| 1777555477 | 7.22° C | 77% | 1014.2 hPa | 0 mm | - | 118 W/m² | - |
| 1777555173 | 7.22° C | 78% | 1013.8 hPa | 0 mm | - | 138 W/m² | - |
| 1777554871 | 7.22° C | 78% | 1014.1 hPa | 0 mm | - | 143 W/m² | - |
| 1777554567 | 7.22° C | 80% | 1014 hPa | 0 mm | - | 209 W/m² | - |
| 1777554264 | 6.67° C | 79% | 1013.9 hPa | 0 mm | - | 208 W/m² | - |
| 1777553961 | 6.67° C | 80% | 1013.7 hPa | 0 mm | - | 173 W/m² | - |
| 1777553657 | 6.67° C | 80% | 1013.7 hPa | 0 mm | - | 120 W/m² | - |
| 1777553354 | 6.67° C | 81% | 1013.7 hPa | 0 mm | - | 84 W/m² | - |
| 1777553050 | 6.67° C | 83% | 1013.7 hPa | 0 mm | - | 86 W/m² | - |
| 1777552745 | 6.67° C | 82% | 1013.8 hPa | 0 mm | - | 86 W/m² | - |
| 1777552441 | 6.67° C | 84% | 1013.8 hPa | 0 mm | - | 85 W/m² | - |
| 1777552137 | 6.67° C | 85% | 1013.6 hPa | 0 mm | - | 96 W/m² | - |
| 1777551835 | 6.67° C | 85% | 1013.8 hPa | 0 mm | - | 84 W/m² | - |
| 1777551533 | 6.67° C | 85% | 1014 hPa | 0 mm | - | 76 W/m² | - |
| 1777551229 | 6.67° C | 84% | 1014 hPa | 0 mm | - | 68 W/m² | - |
| 1777550926 | 6.67° C | 84% | 1013.6 hPa | 0 mm | - | 64 W/m² | - |
| 1777550623 | 6.67° C | 84% | 1013.6 hPa | 0 mm | - | 60 W/m² | - |
| 1777550319 | 6.67° C | 84% | 1013.7 hPa | 0 mm | - | 66 W/m² | - |
| 1777550015 | 6.67° C | 83% | 1013.6 hPa | 0 mm | - | 62 W/m² | - |
| 1777549712 | 6.67° C | 83% | 1013.6 hPa | 0 mm | - | 46 W/m² | - |
| 1777549406 | 6.67° C | 84% | 1013.4 hPa | 0 mm | - | 58 W/m² | - |
| 1777549104 | 6.67° C | 84% | 1013.6 hPa | 0 mm | - | 50 W/m² | - |
| 1777548800 | 6.67° C | 85% | 1013.3 hPa | 0 mm | - | 39 W/m² | - |
| 1777548498 | 6.11° C | 85% | 1013.5 hPa | 0 mm | - | 33 W/m² | - |
| 1777548194 | 6.11° C | 85% | 1013.4 hPa | 0 mm | - | 29 W/m² | - |
* Rain latest hour (hover to see other rain measurements)
** Current wind speed in m/s (hover to see current wind gust speed)